TimeCST,TemperatureF,Dew PointF,Humidity,Sea Level PressureIn,VisibilityMPH,Wind Direction,Wind SpeedMPH,Gust SpeedMPH,PrecipitationIn,Events,Conditions,WindDirDegrees,DateUTC
12:15 AM,50.0,21.2,32,29.77,10.0,South,27.6,39.1,N/A,,Scattered Clouds,190,2012-12-06 06:15:00
12:35 AM,50.0,21.2,32,29.76,10.0,South,25.3,36.8,N/A,,Partly Cloudy,190,2012-12-06 06:35:00
12:55 AM,48.2,21.2,34,29.76,10.0,South,25.3,34.5,N/A,,Clear,190,2012-12-06 06:55:00
1:15 AM,48.2,21.2,34,29.76,10.0,South,28.8,35.7,N/A,,Clear,190,2012-12-06 07:15:00
1:35 AM,48.2,21.2,34,29.76,10.0,SSW,25.3,33.4,N/A,,Partly Cloudy,200,2012-12-06 07:35:00
1:55 AM,48.2,21.2,34,29.76,10.0,SSW,23.0,34.5,N/A,,Partly Cloudy,200,2012-12-06 07:55:00
2:15 AM,48.2,23.0,37,29.76,10.0,SSW,23.0,29.9,N/A,,Clear,200,2012-12-06 08:15:00
2:35 AM,46.4,24.8,43,29.77,10.0,SSW,19.6,24.2,N/A,,Clear,210,2012-12-06 08:35:00
2:55 AM,46.4,24.8,43,29.78,10.0,SSW,23.0,28.8,N/A,,Partly Cloudy,200,2012-12-06 08:55:00
3:15 AM,44.6,28.4,53,29.77,10.0,SSW,20.7,26.5,N/A,,Mostly Cloudy,210,2012-12-06 09:15:00
3:35 AM,42.8,28.4,57,29.77,10.0,SSW,17.3,-,N/A,,Mostly Cloudy,210,2012-12-06 09:35:00
3:55 AM,42.8,28.4,57,29.78,10.0,SW,18.4,24.2,N/A,,Mostly Cloudy,220,2012-12-06 09:55:00
4:15 AM,42.8,28.4,57,29.79,10.0,SW,19.6,-,N/A,,Scattered Clouds,220,2012-12-06 10:15:00
4:35 AM,42.8,30.2,61,29.79,10.0,SW,17.3,23.0,N/A,,Mostly Cloudy,220,2012-12-06 10:35:00
4:55 AM,42.8,30.2,61,29.80,10.0,SW,17.3,21.9,N/A,,Mostly Cloudy,230,2012-12-06 10:55:00
5:15 AM,42.8,30.2,61,29.80,10.0,SW,12.7,-,N/A,,Partly Cloudy,230,2012-12-06 11:15:00
5:35 AM,42.8,30.2,61,29.81,10.0,WSW,11.5,-,N/A,,Partly Cloudy,240,2012-12-06 11:35:00
5:55 AM,41.0,30.2,65,29.81,10.0,WSW,6.9,-,N/A,,Scattered Clouds,250,2012-12-06 11:55:00
6:15 AM,41.0,32.0,70,29.81,10.0,WSW,6.9,-,N/A,,Mostly Cloudy,250,2012-12-06 12:15:00
6:35 AM,41.0,32.0,70,29.84,10.0,West,10.4,-,N/A,,Mostly Cloudy,260,2012-12-06 12:35:00
6:55 AM,39.2,30.2,70,29.84,10.0,West,9.2,-,N/A,,Mostly Cloudy,260,2012-12-06 12:55:00
7:15 AM,41.0,30.2,65,29.85,10.0,WNW,6.9,-,N/A,,Mostly Cloudy,300,2012-12-06 13:15:00
7:35 AM,39.2,30.2,70,29.85,10.0,NW,5.8,-,N/A,,Mostly Cloudy,310,2012-12-06 13:35:00
7:55 AM,39.2,30.2,70,29.87,10.0,WNW,8.1,-,N/A,,Scattered Clouds,300,2012-12-06 13:55:00
8:15 AM,41.0,28.4,61,29.88,10.0,NW,12.7,-,N/A,,Clear,320,2012-12-06 14:15:00
8:35 AM,41.0,28.4,61,29.88,10.0,NW,12.7,-,N/A,,Clear,310,2012-12-06 14:35:00
8:55 AM,41.0,26.6,57,29.89,10.0,NW,17.3,-,N/A,,Clear,320,2012-12-06 14:55:00
9:15 AM,39.2,26.6,61,29.91,10.0,NW,11.5,-,N/A,,Clear,320,2012-12-06 15:15:00
9:35 AM,39.2,26.6,61,29.90,10.0,NW,15.0,-,N/A,,Clear,320,2012-12-06 15:35:00
9:55 AM,39.2,26.6,61,29.91,10.0,NNW,15.0,-,N/A,,Clear,330,2012-12-06 15:55:00
10:15 AM,41.0,26.6,57,29.92,10.0,NNW,19.6,23.0,N/A,,Clear,330,2012-12-06 16:15:00
10:35 AM,39.2,26.6,61,29.92,10.0,NW,12.7,-,N/A,,Clear,320,2012-12-06 16:35:00
10:55 AM,39.2,28.4,65,29.92,10.0,NW,12.7,-,N/A,,Clear,320,2012-12-06 16:55:00
11:15 AM,41.0,26.6,57,29.92,10.0,NNW,11.5,-,N/A,,Clear,330,2012-12-06 17:15:00
11:35 AM,42.8,28.4,57,29.92,10.0,NW,15.0,-,N/A,,Clear,320,2012-12-06 17:35:00
11:55 AM,42.8,26.6,53,29.92,10.0,NW,13.8,20.7,N/A,,Clear,320,2012-12-06 17:55:00
12:15 PM,42.8,26.6,53,29.92,10.0,NW,18.4,-,N/A,,Clear,320,2012-12-06 18:15:00
12:35 PM,44.6,26.6,49,29.91,10.0,NW,16.1,-,N/A,,Scattered Clouds,320,2012-12-06 18:35:00
12:55 PM,44.6,28.4,53,29.91,10.0,NW,18.4,-,N/A,,Mostly Cloudy,320,2012-12-06 18:55:00
1:15 PM,44.6,26.6,49,29.91,10.0,NNW,12.7,-,N/A,,Mostly Cloudy,330,2012-12-06 19:15:00
1:35 PM,44.6,26.6,49,29.92,10.0,NW,15.0,19.6,N/A,,Scattered Clouds,310,2012-12-06 19:35:00
1:55 PM,46.4,28.4,50,29.92,10.0,NW,16.1,-,N/A,,Partly Cloudy,320,2012-12-06 19:55:00
2:15 PM,44.6,26.6,49,29.92,10.0,NW,12.7,-,N/A,,Scattered Clouds,320,2012-12-06 20:15:00
2:35 PM,44.6,26.6,49,29.92,10.0,WNW,11.5,-,N/A,,Overcast,300,2012-12-06 20:35:00
2:55 PM,42.8,26.6,53,29.93,10.0,WNW,17.3,-,N/A,,Mostly Cloudy,300,2012-12-06 20:55:00
3:15 PM,42.8,26.6,53,29.93,10.0,WNW,15.0,-,N/A,,Partly Cloudy,300,2012-12-06 21:15:00
3:35 PM,42.8,26.6,53,29.94,10.0,WNW,15.0,-,N/A,,Partly Cloudy,300,2012-12-06 21:35:00
3:55 PM,42.8,26.6,53,29.95,10.0,WNW,12.7,-,N/A,,Partly Cloudy,300,2012-12-06 21:55:00
4:15 PM,42.8,24.8,49,29.94,10.0,NW,15.0,-,N/A,,Clear,310,2012-12-06 22:15:00
4:35 PM,41.0,24.8,53,29.95,10.0,NW,12.7,-,N/A,,Mostly Cloudy,310,2012-12-06 22:35:00
4:55 PM,39.2,24.8,56,29.95,10.0,NW,9.2,-,N/A,,Scattered Clouds,310,2012-12-06 22:55:00
5:15 PM,39.2,24.8,56,29.95,10.0,NW,9.2,-,N/A,,Mostly Cloudy,310,2012-12-06 23:15:00
5:35 PM,39.2,24.8,56,29.95,10.0,NW,9.2,-,N/A,,Overcast,320,2012-12-06 23:35:00
5:55 PM,39.2,24.8,56,29.95,10.0,NW,10.4,-,N/A,,Overcast,310,2012-12-06 23:55:00
6:15 PM,39.2,23.0,52,29.95,10.0,NW,10.4,-,N/A,,Mostly Cloudy,320,2012-12-07 00:15:00
6:35 PM,37.4,23.0,56,29.96,10.0,NNW,10.4,-,N/A,,Overcast,330,2012-12-07 00:35:00
7:15 PM,37.4,23.0,56,29.97,10.0,NNW,8.1,-,N/A,,Overcast,340,2012-12-07 01:15:00
7:35 PM,37.4,23.0,56,29.97,10.0,NNW,12.7,-,N/A,,Overcast,340,2012-12-07 01:35:00
7:55 PM,37.4,21.2,52,29.99,10.0,North,12.7,-,N/A,,Overcast,350,2012-12-07 01:55:00
8:35 PM,35.6,21.2,56,29.99,10.0,North,9.2,-,N/A,,Scattered Clouds,10,2012-12-07 02:35:00
8:55 PM,35.6,21.2,56,29.99,10.0,North,6.9,-,N/A,,Clear,10,2012-12-07 02:55:00
9:15 PM,33.8,21.2,60,29.99,10.0,North,11.5,-,N/A,,Mostly Cloudy,10,2012-12-07 03:15:00
9:35 PM,33.8,19.4,56,29.99,10.0,North,8.1,-,N/A,,Overcast,10,2012-12-07 03:35:00
9:55 PM,33.8,19.4,56,30.00,10.0,North,8.1,-,N/A,,Overcast,360,2012-12-07 03:55:00
10:15 PM,33.8,19.4,56,30.00,10.0,North,10.4,-,N/A,,Overcast,360,2012-12-07 04:15:00
10:35 PM,32.0,19.4,60,30.00,10.0,North,8.1,-,N/A,,Overcast,10,2012-12-07 04:35:00
10:55 PM,32.0,19.4,60,29.99,10.0,NNE,6.9,-,N/A,,Overcast,20,2012-12-07 04:55:00
11:15 PM,32.0,17.6,55,29.99,10.0,NNE,8.1,-,N/A,,Mostly Cloudy,20,2012-12-07 05:15:00
11:35 PM,30.2,19.4,64,29.99,10.0,NNE,5.8,-,N/A,,Mostly Cloudy,30,2012-12-07 05:35:00
11:55 PM,30.2,19.4,64,30.00,10.0,NNE,5.8,-,N/A,,Overcast,30,2012-12-07 05:55:00